Location: Cornospital
(48.0620°N, 3.3837°W)
Time: 21:42:17
(UTC+00:00)

GENESIS II - Pass Details

Date: 28 October 2021
Orbit: 494 x 529 km, 64.5° (Epoch: 28 November)

Event Time Altitude Azimuth Distance (km) Brightness Sun altitude
Rises 18:11:57 0° 317° (NW) 2,638 8.4 -12.3°
Reaches altitude 10° 18:14:09 10° 312° (NW) 1,753 7.5 -12.7°
Maximum altitude 18:17:57 49° 237° (WSW) 677 5.2 -13.3°
Drops below altitude 10° 18:21:46 10° 162° (SSE) 1,759 6.8 -14.0°
Sets 18:23:59 0° 157° (SSE) 2,647 7.6 -14.3°
